Location: Vancouver
(49.2500°N, 123.1330°W)
Time: 00:29:16
(UTC-07:00)

YAOGAN 6 - Visible Passes

Search period start: 01 June 2016 00:00
Search period end: 11 June 2016 00:00
Orbit: 472 x 510 km, 97.2° (Epoch: 31 May)

Date Brightness Start Highest point End Pass type
(mag) Time Alt. Az. Time Alt. Az. Time Alt. Az.
01 Jun 3.4 22:30:42 10° S 22:34:20 50° W 22:38:00 10° NNW visible
02 Jun 2.7 22:08:14 10° SSE 22:11:59 89° ENE 22:15:45 10° NNW visible
03 Jun 3.1 21:46:04 10° SSE 21:49:41 49° ENE 21:53:20 10° N visible
03 Jun 5.2 23:21:18 10° SW 23:23:34 15° W 23:25:50 10° NW visible
04 Jun 4.5 22:57:54 10° SSW 23:01:03 25° W 23:04:14 10° NW visible
05 Jun 3.6 22:35:01 10° S 22:38:36 44° W 22:42:13 10° NNW visible
06 Jun 2.7 22:12:29 10° S 22:16:14 81° WSW 22:19:59 10° NNW visible
07 Jun 5.3 23:25:54 10° WSW 23:27:51 14° W 23:29:48 10° WNW visible
08 Jun 4.7 23:02:18 10° SSW 23:05:19 23° W 23:08:21 10° NW visible
09 Jun 3.8 22:39:20 10° SSW 22:42:51 39° W 22:46:23 10° NNW visible
10 Jun 2.9 22:16:44 10° S 22:20:27 72° WSW 22:24:10 10° NNW visible
